This is the latest recevied weather packets stored in our database for station/object KN6KS. If no packets are shown the sender has not sent any weather packets the latest 10 day(s).
| Time | Temp. | Humidity | Pressure | Rain* | Wind** | Luminosity | Snow |
|---|---|---|---|---|---|---|---|
| 1778097687 | 26.11° C | 26% | 1016.1 hPa | 0 mm | - | 700 W/m² | - |
| 1778097383 | 25.56° C | 27% | 1015.9 hPa | 0 mm | - | 704 W/m² | - |
| 1778097080 | 25.56° C | 27% | 1015.9 hPa | 0 mm | - | 714 W/m² | - |
| 1778096777 | 25.56° C | 26% | 1016.1 hPa | 0 mm | - | 700 W/m² | - |
| 1778096473 | 25° C | 30% | 1015.9 hPa | 0 mm | - | 659 W/m² | - |
| 1778096171 | 25° C | 29% | 1016.1 hPa | 0 mm | - | 681 W/m² | - |
| 1778095869 | 25° C | 29% | 1016.2 hPa | 0 mm | - | 720 W/m² | - |
| 1778095565 | 24.44° C | 29% | 1015.9 hPa | 0 mm | - | 714 W/m² | - |
| 1778095261 | 25.56° C | 30% | 1016.2 hPa | 0 mm | - | 714 W/m² | - |
| 1778094957 | 25° C | 31% | 1015.9 hPa | 0 mm | - | 730 W/m² | - |
| 1778094653 | 23.89° C | 30% | 1016.2 hPa | 0 mm | - | 729 W/m² | - |
| 1778094351 | 23.89° C | 30% | 1016.3 hPa | 0 mm | - | 725 W/m² | - |
| 1778094048 | 23.89° C | 31% | 1016.2 hPa | 0 mm | - | 737 W/m² | - |
| 1778093745 | 23.89° C | 30% | 1016.3 hPa | 0 mm | - | 743 W/m² | - |
| 1778093442 | 23.89° C | 32% | 1016.6 hPa | 0 mm | - | 739 W/m² | - |
| 1778093139 | 23.33° C | 32% | 1016.3 hPa | 0 mm | - | 746 W/m² | - |
| 1778092836 | 23.33° C | 33% | 1016.4 hPa | 0 mm | - | 752 W/m² | - |
| 1778092532 | 23.33° C | 32% | 1016.7 hPa | 0 mm | - | 748 W/m² | - |
| 1778092229 | 23.33° C | 32% | 1016.4 hPa | 0 mm | - | 750 W/m² | - |
| 1778091926 | 23.33° C | 33% | 1016.8 hPa | 0 mm | - | 760 W/m² | - |
| 1778091623 | 22.22° C | 31% | 1016.8 hPa | 0 mm | - | 759 W/m² | - |
| 1778091321 | 22.78° C | 32% | 1016.7 hPa | 0 mm | - | 747 W/m² | - |
| 1778091018 | 22.22° C | 34% | 1016.7 hPa | 0 mm | - | 700 W/m² | - |
| 1778090714 | 22.22° C | 33% | 1016.4 hPa | 0 mm | - | 665 W/m² | - |
| 1778090411 | 22.22° C | 38% | 1016.7 hPa | 0 mm | - | 711 W/m² | - |
* Rain latest hour (hover to see other rain measurements)
** Current wind speed in m/s (hover to see current wind gust speed)